Retour au catalogue

STARLINK-31596

ActifCommunicationsVLEO
NORAD 59336·PAYLOAD·🇺🇸 United States

Lancé Mar 25, 2024 depuis Cape Canaveral Space Force Station

Loading…

Prochains Passages (prochaines 24 heures)

TLE

FraisSource: CelesTrak SupGP

Époque: Sep 15, 2026, 01:53 UTC

1 59336C 24057S   26258.07895833 -.00091827  00000+0 -33251-2 0  2582
2 59336  42.9995 197.2161 0001240 262.6843 218.8170 15.27632592    11

Suivez STARLINK-31596 en temps réel avec AllMySat

Download on the App Store